Year,Month,Day,Hour,Minute,Value (Times are PST for temperature in C)
2015,06,15,00,00,15.60
2015,06,15,00,01,15.60
2015,06,15,00,02,15.60
2015,06,15,00,03,15.50
2015,06,15,00,04,15.50
2015,06,15,00,05,15.50
2015,06,15,00,06,15.50
2015,06,15,00,07,15.50
2015,06,15,00,08,15.40
2015,06,15,00,09,15.40
2015,06,15,00,10,15.40
2015,06,15,00,11,15.40
2015,06,15,00,12,15.40
2015,06,15,00,13,15.40
2015,06,15,00,14,15.30
2015,06,15,00,15,15.30
2015,06,15,00,16,15.30
2015,06,15,00,17,15.30
2015,06,15,00,18,15.30
2015,06,15,00,19,15.30
2015,06,15,00,20,15.30
2015,06,15,00,21,15.30
2015,06,15,00,22,15.30
2015,06,15,00,23,15.30
2015,06,15,00,24,15.20
2015,06,15,00,25,15.20
2015,06,15,00,26,15.20
2015,06,15,00,27,15.20
2015,06,15,00,28,15.20
2015,06,15,00,29,15.20
2015,06,15,00,30,15.20
2015,06,15,00,31,15.10
2015,06,15,00,32,15.10
2015,06,15,00,33,15.10
2015,06,15,00,34,15.10
2015,06,15,00,35,15.10
2015,06,15,00,36,15.10
2015,06,15,00,37,15.10
2015,06,15,00,38,15.00
2015,06,15,00,39,15.00
2015,06,15,00,40,15.00
2015,06,15,00,41,15.00
2015,06,15,00,42,15.00
2015,06,15,00,43,15.00
2015,06,15,00,44,14.90
2015,06,15,00,45,14.90
2015,06,15,00,46,14.90
2015,06,15,00,47,14.90
2015,06,15,00,48,14.90
2015,06,15,00,49,14.90
2015,06,15,00,50,14.90
2015,06,15,00,51,14.80
2015,06,15,00,52,14.80
2015,06,15,00,53,14.80
2015,06,15,00,54,14.80
2015,06,15,00,55,14.80
2015,06,15,00,56,14.80
2015,06,15,00,57,14.80
2015,06,15,00,58,14.80
2015,06,15,00,59,14.80
2015,06,15,01,00,14.80
2015,06,15,01,01,14.80
2015,06,15,01,02,14.80
2015,06,15,01,03,14.70
2015,06,15,01,04,14.70
2015,06,15,01,05,14.70
2015,06,15,01,06,14.70
2015,06,15,01,07,14.70
2015,06,15,01,08,14.70
2015,06,15,01,09,14.70
2015,06,15,01,10,14.70
2015,06,15,01,11,14.70
2015,06,15,01,12,14.70
2015,06,15,01,13,14.70
2015,06,15,01,14,14.70
2015,06,15,01,15,14.60
2015,06,15,01,16,14.60
2015,06,15,01,17,14.60
2015,06,15,01,18,14.60
2015,06,15,01,19,14.60
2015,06,15,01,20,14.50
2015,06,15,01,21,14.50
2015,06,15,01,22,14.50
2015,06,15,01,23,14.50
2015,06,15,01,24,14.50
2015,06,15,01,25,14.50
2015,06,15,01,26,14.50
2015,06,15,01,27,14.40
2015,06,15,01,28,14.40
2015,06,15,01,29,14.40
2015,06,15,01,30,14.40
2015,06,15,01,31,14.30
2015,06,15,01,32,14.30
2015,06,15,01,33,14.30
2015,06,15,01,34,14.30
2015,06,15,01,35,14.20
2015,06,15,01,36,14.20
2015,06,15,01,37,14.20
2015,06,15,01,38,14.20
2015,06,15,01,39,14.20
2015,06,15,01,40,14.20
2015,06,15,01,41,14.20
2015,06,15,01,42,14.20
2015,06,15,01,43,14.20
2015,06,15,01,44,14.20
2015,06,15,01,45,14.20
2015,06,15,01,46,14.20
2015,06,15,01,47,14.20
2015,06,15,01,48,14.20
2015,06,15,01,49,14.20
2015,06,15,01,50,14.20
2015,06,15,01,51,14.20
2015,06,15,01,52,14.20
2015,06,15,01,53,14.20
2015,06,15,01,54,14.10
2015,06,15,01,55,14.10
2015,06,15,01,56,14.10
2015,06,15,01,57,14.10
2015,06,15,01,58,14.00
2015,06,15,01,59,14.00
2015,06,15,02,00,14.10
2015,06,15,02,01,14.10
2015,06,15,02,02,14.00
2015,06,15,02,03,14.00
2015,06,15,02,04,14.00
2015,06,15,02,05,14.00
2015,06,15,02,06,14.00
2015,06,15,02,07,13.90
2015,06,15,02,08,13.90
2015,06,15,02,09,13.90
2015,06,15,02,10,13.90
2015,06,15,02,11,13.90
2015,06,15,02,12,13.90
2015,06,15,02,13,13.90
2015,06,15,02,14,13.80
2015,06,15,02,15,13.80
2015,06,15,02,16,13.80
2015,06,15,02,17,13.80
2015,06,15,02,18,13.80
2015,06,15,02,19,13.80
2015,06,15,02,20,13.70
2015,06,15,02,21,13.70
2015,06,15,02,22,13.70
2015,06,15,02,23,13.70
2015,06,15,02,24,13.70
2015,06,15,02,25,13.70
2015,06,15,02,26,13.70
2015,06,15,02,27,13.70
2015,06,15,02,28,13.70
2015,06,15,02,29,13.60
2015,06,15,02,30,13.60
2015,06,15,02,31,13.60
2015,06,15,02,32,13.60
2015,06,15,02,33,13.60
2015,06,15,02,34,13.50
2015,06,15,02,35,13.50
2015,06,15,02,36,13.50
2015,06,15,02,37,13.50
2015,06,15,02,38,13.50
2015,06,15,02,39,13.50
2015,06,15,02,40,13.50
2015,06,15,02,41,13.50
2015,06,15,02,42,13.50
2015,06,15,02,43,13.50
2015,06,15,02,44,13.50
2015,06,15,02,45,13.50
2015,06,15,02,46,13.50
2015,06,15,02,47,13.50
2015,06,15,02,48,13.40
2015,06,15,02,49,13.40
2015,06,15,02,50,13.40
2015,06,15,02,51,13.40
2015,06,15,02,52,13.30
2015,06,15,02,53,13.30
2015,06,15,02,54,13.30
2015,06,15,02,55,13.30
2015,06,15,02,56,13.30
2015,06,15,02,57,13.30
2015,06,15,02,58,13.30
2015,06,15,02,59,13.30
2015,06,15,03,00,13.30
2015,06,15,03,01,13.20
2015,06,15,03,02,13.20
2015,06,15,03,03,13.20
2015,06,15,03,04,13.10
2015,06,15,03,05,13.10
2015,06,15,03,06,13.00
2015,06,15,03,07,13.00
2015,06,15,03,08,13.00
2015,06,15,03,09,12.90
2015,06,15,03,10,12.90
2015,06,15,03,11,12.90
2015,06,15,03,12,12.90
2015,06,15,03,13,12.90
2015,06,15,03,14,12.90
2015,06,15,03,15,12.90
2015,06,15,03,16,12.90
2015,06,15,03,17,13.00
2015,06,15,03,18,13.00
2015,06,15,03,19,13.00
2015,06,15,03,20,13.00
2015,06,15,03,21,13.00
2015,06,15,03,22,13.00
2015,06,15,03,23,13.00
2015,06,15,03,24,13.00
2015,06,15,03,25,13.00
2015,06,15,03,26,13.00
2015,06,15,03,27,13.00
2015,06,15,03,28,13.00
2015,06,15,03,29,13.00
2015,06,15,03,30,13.00
2015,06,15,03,31,13.00
2015,06,15,03,32,13.00
2015,06,15,03,33,13.00
2015,06,15,03,34,13.00
2015,06,15,03,35,13.00
2015,06,15,03,36,13.00
2015,06,15,03,37,13.00
2015,06,15,03,38,13.00
2015,06,15,03,39,12.90
2015,06,15,03,40,12.90
2015,06,15,03,41,12.90
2015,06,15,03,42,12.90
2015,06,15,03,43,12.90
2015,06,15,03,44,12.80
2015,06,15,03,45,12.80
2015,06,15,03,46,12.80
2015,06,15,03,47,12.80
2015,06,15,03,48,12.80
2015,06,15,03,49,12.80
2015,06,15,03,50,12.80
2015,06,15,03,51,12.80
2015,06,15,03,52,12.80
2015,06,15,03,53,12.80
2015,06,15,03,54,12.80
2015,06,15,03,55,12.80
2015,06,15,03,56,12.80
2015,06,15,03,57,12.70
2015,06,15,03,58,12.70
2015,06,15,03,59,12.70
2015,06,15,04,00,12.70
2015,06,15,04,01,12.70
2015,06,15,04,02,12.70
2015,06,15,04,03,12.70
2015,06,15,04,04,12.70
2015,06,15,04,05,12.60
2015,06,15,04,06,12.60
2015,06,15,04,07,12.60
2015,06,15,04,08,12.60
2015,06,15,04,09,12.60
2015,06,15,04,10,12.60
2015,06,15,04,11,12.60
2015,06,15,04,12,12.50
2015,06,15,04,13,12.50
2015,06,15,04,14,12.50
2015,06,15,04,15,12.50
2015,06,15,04,16,12.50
2015,06,15,04,17,12.50
2015,06,15,04,18,12.40
2015,06,15,04,19,12.40
2015,06,15,04,20,12.40
2015,06,15,04,21,12.40
2015,06,15,04,22,12.30
2015,06,15,04,23,12.30
2015,06,15,04,24,12.30
2015,06,15,04,25,12.30
2015,06,15,04,26,12.30
2015,06,15,04,27,12.30
2015,06,15,04,28,12.30
2015,06,15,04,29,12.30
2015,06,15,04,30,12.30
2015,06,15,04,31,12.30
2015,06,15,04,32,12.30
2015,06,15,04,33,12.30
2015,06,15,04,34,12.30
2015,06,15,04,35,12.30
2015,06,15,04,36,12.30
2015,06,15,04,37,12.30
2015,06,15,04,38,12.30
2015,06,15,04,39,12.30
2015,06,15,04,40,12.30
2015,06,15,04,41,12.30
2015,06,15,04,42,12.30
2015,06,15,04,43,12.30
2015,06,15,04,44,12.30
2015,06,15,04,45,12.30
2015,06,15,04,46,12.20
2015,06,15,04,47,12.20
2015,06,15,04,48,12.20
2015,06,15,04,49,12.20
2015,06,15,04,50,12.10
2015,06,15,04,51,12.10
2015,06,15,04,52,12.10
2015,06,15,04,53,12.00
2015,06,15,04,54,12.00
2015,06,15,04,55,12.00
2015,06,15,04,56,11.90
2015,06,15,04,57,11.90
2015,06,15,04,58,11.80
2015,06,15,04,59,11.80
2015,06,15,05,00,11.80
2015,06,15,05,01,11.80
2015,06,15,05,02,11.80
2015,06,15,05,03,11.80
2015,06,15,05,04,11.80
2015,06,15,05,05,11.80
2015,06,15,05,06,11.80
2015,06,15,05,07,11.80
2015,06,15,05,08,11.80
2015,06,15,05,09,11.80
2015,06,15,05,10,11.80
2015,06,15,05,11,11.80
2015,06,15,05,12,11.80
2015,06,15,05,13,11.80
2015,06,15,05,14,11.80
2015,06,15,05,15,11.80
2015,06,15,05,16,11.90
2015,06,15,05,17,11.90
2015,06,15,05,18,11.90
2015,06,15,05,19,11.90
2015,06,15,05,20,11.90
2015,06,15,05,21,11.90
2015,06,15,05,22,11.90
2015,06,15,05,23,11.90
2015,06,15,05,24,11.90
2015,06,15,05,25,11.90
2015,06,15,05,26,11.90
2015,06,15,05,27,11.90
2015,06,15,05,28,11.90
2015,06,15,05,29,11.90
2015,06,15,05,30,11.90
2015,06,15,05,31,11.90
2015,06,15,05,32,11.90
2015,06,15,05,33,11.90
2015,06,15,05,34,11.90
2015,06,15,05,35,11.90
2015,06,15,05,36,11.90
2015,06,15,05,37,11.90
2015,06,15,05,38,11.90
2015,06,15,05,39,12.00
2015,06,15,05,40,12.00
2015,06,15,05,41,12.00
2015,06,15,05,42,12.00
2015,06,15,05,43,12.10
2015,06,15,05,44,12.10
2015,06,15,05,45,12.10
2015,06,15,05,46,12.10
2015,06,15,05,47,12.20
2015,06,15,05,48,12.20
2015,06,15,05,49,12.20
2015,06,15,05,50,12.20
2015,06,15,05,51,12.30
2015,06,15,05,52,12.30
2015,06,15,05,53,12.30
2015,06,15,05,54,12.30
2015,06,15,05,55,12.30
2015,06,15,05,56,12.40
2015,06,15,05,57,12.40
2015,06,15,05,58,12.50
2015,06,15,05,59,12.50
2015,06,15,06,00,12.50
2015,06,15,06,01,12.50
2015,06,15,06,02,12.60
2015,06,15,06,03,12.60
2015,06,15,06,04,12.70
2015,06,15,06,05,12.70
2015,06,15,06,06,12.80
2015,06,15,06,07,12.80
2015,06,15,06,08,12.80
2015,06,15,06,09,12.80
2015,06,15,06,10,12.90
2015,06,15,06,11,12.90
2015,06,15,06,12,13.00
2015,06,15,06,13,13.00
2015,06,15,06,14,13.00
2015,06,15,06,15,13.00
2015,06,15,06,16,13.10
2015,06,15,06,17,13.10
2015,06,15,06,18,13.10
2015,06,15,06,19,13.20
2015,06,15,06,20,13.20
2015,06,15,06,21,13.30
2015,06,15,06,22,13.30
2015,06,15,06,23,13.30
2015,06,15,06,24,13.40
2015,06,15,06,25,13.40
2015,06,15,06,26,13.50
2015,06,15,06,27,13.50
2015,06,15,06,28,13.60
2015,06,15,06,29,13.60
2015,06,15,06,30,13.70
2015,06,15,06,31,13.70
2015,06,15,06,32,13.80
2015,06,15,06,33,13.80
2015,06,15,06,34,13.90
2015,06,15,06,35,13.90
2015,06,15,06,36,14.00
2015,06,15,06,37,14.10
2015,06,15,06,38,14.20
2015,06,15,06,39,14.20
2015,06,15,06,40,14.30
2015,06,15,06,41,14.40
2015,06,15,06,42,14.50
2015,06,15,06,43,14.60
2015,06,15,06,44,14.60
2015,06,15,06,45,14.70
2015,06,15,06,46,14.70
2015,06,15,06,47,14.80
2015,06,15,06,48,14.80
2015,06,15,06,49,14.90
2015,06,15,06,50,15.00
2015,06,15,06,51,15.10
2015,06,15,06,52,15.20
2015,06,15,06,53,15.20
2015,06,15,06,54,15.40
2015,06,15,06,55,15.50
2015,06,15,06,56,15.60
2015,06,15,06,57,15.80
2015,06,15,06,58,15.90
2015,06,15,06,59,16.00
2015,06,15,07,00,16.20
2015,06,15,07,01,16.20
2015,06,15,07,02,16.40
2015,06,15,07,03,16.40
2015,06,15,07,04,16.50
2015,06,15,07,05,16.60
2015,06,15,07,06,16.70
2015,06,15,07,07,16.70
2015,06,15,07,08,16.80
2015,06,15,07,09,16.80
2015,06,15,07,10,16.90
2015,06,15,07,11,16.90
2015,06,15,07,12,17.00
2015,06,15,07,13,17.00
2015,06,15,07,14,17.10
2015,06,15,07,15,17.20
2015,06,15,07,16,17.30
2015,06,15,07,17,17.30
2015,06,15,07,18,17.40
2015,06,15,07,19,17.50
2015,06,15,07,20,17.60
2015,06,15,07,21,17.70
2015,06,15,07,22,17.70
2015,06,15,07,23,17.80
2015,06,15,07,24,17.90
2015,06,15,07,25,18.00
2015,06,15,07,26,18.10
2015,06,15,07,27,18.20
2015,06,15,07,28,18.20
2015,06,15,07,29,18.30
2015,06,15,07,30,18.40
2015,06,15,07,31,18.50
2015,06,15,07,32,18.60
2015,06,15,07,33,18.60
2015,06,15,07,34,18.70
2015,06,15,07,35,18.70
2015,06,15,07,36,18.80
2015,06,15,07,37,18.80
2015,06,15,07,38,18.80
2015,06,15,07,39,18.80
2015,06,15,07,40,18.90
2015,06,15,07,41,18.90
2015,06,15,07,42,18.90
2015,06,15,07,43,19.00
2015,06,15,07,44,19.10
2015,06,15,07,45,19.10
2015,06,15,07,46,19.20
2015,06,15,07,47,19.20
2015,06,15,07,48,19.30
2015,06,15,07,49,19.30
2015,06,15,07,50,19.30
2015,06,15,07,51,19.40
2015,06,15,07,52,19.40
2015,06,15,07,53,19.40
2015,06,15,07,54,19.40
2015,06,15,07,55,19.50
2015,06,15,07,56,19.50
2015,06,15,07,57,19.50
2015,06,15,07,58,19.60
2015,06,15,07,59,19.60
2015,06,15,08,00,19.60
2015,06,15,08,01,19.60
2015,06,15,08,02,19.60
2015,06,15,08,03,19.60
2015,06,15,08,04,19.60
2015,06,15,08,05,19.60
2015,06,15,08,06,19.60
2015,06,15,08,07,19.60
2015,06,15,08,08,19.60
2015,06,15,08,09,19.60
2015,06,15,08,10,19.60
2015,06,15,08,11,19.60
2015,06,15,08,12,19.60
2015,06,15,08,13,19.60
2015,06,15,08,14,19.60
2015,06,15,08,15,19.60
2015,06,15,08,16,19.60
2015,06,15,08,17,19.60
2015,06,15,08,18,19.60
2015,06,15,08,19,19.70
2015,06,15,08,20,19.70
2015,06,15,08,21,19.80
2015,06,15,08,22,19.90
2015,06,15,08,23,19.90
2015,06,15,08,24,19.90
2015,06,15,08,25,19.90
2015,06,15,08,26,19.90
2015,06,15,08,27,19.90
2015,06,15,08,28,19.90
2015,06,15,08,29,20.10
2015,06,15,08,30,20.10
2015,06,15,08,31,20.20
2015,06,15,08,32,20.20
2015,06,15,08,33,20.20
2015,06,15,08,34,20.30
2015,06,15,08,35,20.40
2015,06,15,08,36,20.40
2015,06,15,08,37,20.50
2015,06,15,08,38,20.50
2015,06,15,08,39,20.50
2015,06,15,08,40,20.50
2015,06,15,08,41,20.60
2015,06,15,08,42,20.60
2015,06,15,08,43,20.60
2015,06,15,08,44,20.60
2015,06,15,08,45,20.60
2015,06,15,08,46,20.60
2015,06,15,08,47,20.70
2015,06,15,08,48,20.70
2015,06,15,08,49,20.70
2015,06,15,08,50,20.70
2015,06,15,08,51,20.70
2015,06,15,08,52,20.70
2015,06,15,08,53,20.70
2015,06,15,08,54,20.70
2015,06,15,08,55,20.80
2015,06,15,08,56,20.80
2015,06,15,08,57,20.80
2015,06,15,08,58,20.80
2015,06,15,08,59,20.80
2015,06,15,09,00,20.80
2015,06,15,09,01,20.80
2015,06,15,09,02,20.80
2015,06,15,09,03,20.70
2015,06,15,09,04,20.80
2015,06,15,09,05,20.80
2015,06,15,09,06,20.90
2015,06,15,09,07,20.90
2015,06,15,09,08,21.00
2015,06,15,09,09,21.00
2015,06,15,09,10,21.10
2015,06,15,09,11,21.00
2015,06,15,09,12,21.00
2015,06,15,09,13,21.00
2015,06,15,09,14,21.00
2015,06,15,09,15,20.90
2015,06,15,09,16,20.80
2015,06,15,09,17,20.80
2015,06,15,09,18,20.70
2015,06,15,09,19,20.60
2015,06,15,09,20,20.60
2015,06,15,09,21,20.60
2015,06,15,09,22,20.60
2015,06,15,09,23,20.60
2015,06,15,09,24,20.60
2015,06,15,09,25,20.60
2015,06,15,09,26,20.60
2015,06,15,09,27,20.60
2015,06,15,09,28,20.60
2015,06,15,09,29,20.70
2015,06,15,09,30,20.70
2015,06,15,09,31,20.70
2015,06,15,09,32,20.80
2015,06,15,09,33,20.80
2015,06,15,09,34,20.80
2015,06,15,09,35,20.80
2015,06,15,09,36,20.80
2015,06,15,09,37,20.80
2015,06,15,09,38,20.90
2015,06,15,09,39,20.90
2015,06,15,09,40,20.90
2015,06,15,09,41,20.90
2015,06,15,09,42,20.90
2015,06,15,09,43,20.90
2015,06,15,09,44,20.90
2015,06,15,09,45,20.80
2015,06,15,09,46,20.80
2015,06,15,09,47,20.80
2015,06,15,09,48,20.90
2015,06,15,09,49,20.90
2015,06,15,09,50,20.90
2015,06,15,09,51,20.90
2015,06,15,09,52,20.90
2015,06,15,09,53,20.90
2015,06,15,09,54,21.00
2015,06,15,09,55,21.00
2015,06,15,09,56,21.00
2015,06,15,09,57,21.10
2015,06,15,09,58,21.20
2015,06,15,09,59,21.30
2015,06,15,10,00,21.30
2015,06,15,10,01,21.30
2015,06,15,10,02,21.40
2015,06,15,10,03,21.50
2015,06,15,10,04,21.60
2015,06,15,10,05,21.60
2015,06,15,10,06,21.60
2015,06,15,10,07,21.60
2015,06,15,10,08,21.40
2015,06,15,10,09,21.40
2015,06,15,10,10,21.30
2015,06,15,10,11,21.30
2015,06,15,10,12,21.30
2015,06,15,10,13,21.30
2015,06,15,10,14,21.20
2015,06,15,10,15,21.20
2015,06,15,10,16,21.20
2015,06,15,10,17,21.20
2015,06,15,10,18,21.20
2015,06,15,10,19,21.20
2015,06,15,10,20,21.20
2015,06,15,10,21,21.20
2015,06,15,10,22,21.20
2015,06,15,10,23,21.10
2015,06,15,10,24,21.10
2015,06,15,10,25,21.10
2015,06,15,10,26,21.00
2015,06,15,10,27,21.00
2015,06,15,10,28,21.00
2015,06,15,10,29,21.10
2015,06,15,10,30,21.10
2015,06,15,10,31,21.10
2015,06,15,10,32,21.20
2015,06,15,10,33,21.20
2015,06,15,10,34,21.20
2015,06,15,10,35,21.20
2015,06,15,10,36,21.20
2015,06,15,10,37,21.20
2015,06,15,10,38,21.20
2015,06,15,10,39,21.20
2015,06,15,10,40,21.30
2015,06,15,10,41,21.30
2015,06,15,10,42,21.40
2015,06,15,10,43,21.40
2015,06,15,10,44,21.40
2015,06,15,10,45,21.40
2015,06,15,10,46,21.40
2015,06,15,10,47,21.40
2015,06,15,10,48,21.50
2015,06,15,10,49,21.60
2015,06,15,10,50,21.60
2015,06,15,10,51,21.60
2015,06,15,10,52,21.60
2015,06,15,10,53,21.60
2015,06,15,10,54,21.60
2015,06,15,10,55,21.70
2015,06,15,10,56,21.80
2015,06,15,10,57,22.00
2015,06,15,10,58,22.10
2015,06,15,10,59,22.20
2015,06,15,11,00,22.20
2015,06,15,11,01,22.30
2015,06,15,11,02,22.30
2015,06,15,11,03,22.30
2015,06,15,11,04,22.40
2015,06,15,11,05,22.40
2015,06,15,11,06,22.40
2015,06,15,11,07,22.50
2015,06,15,11,08,22.50
2015,06,15,11,09,22.60
2015,06,15,11,10,22.60
2015,06,15,11,11,22.70
2015,06,15,11,12,22.80
2015,06,15,11,13,22.80
2015,06,15,11,14,22.80
2015,06,15,11,15,22.80
2015,06,15,11,16,22.80
2015,06,15,11,17,22.90
2015,06,15,11,18,22.90
2015,06,15,11,19,22.90
2015,06,15,11,20,22.80
2015,06,15,11,21,22.80
2015,06,15,11,22,22.80
2015,06,15,11,23,22.80
2015,06,15,11,24,22.80
2015,06,15,11,25,22.90
2015,06,15,11,26,22.90
2015,06,15,11,27,22.90
2015,06,15,11,28,23.10
2015,06,15,11,29,23.10
2015,06,15,11,30,23.20
2015,06,15,11,31,23.20
2015,06,15,11,32,23.30
2015,06,15,11,33,23.30
2015,06,15,11,34,23.30
2015,06,15,11,35,23.30
2015,06,15,11,36,23.30
2015,06,15,11,37,23.30
2015,06,15,11,38,23.30
2015,06,15,11,39,23.40
2015,06,15,11,40,23.40
2015,06,15,11,41,23.50
2015,06,15,11,42,23.60
2015,06,15,11,43,23.60
2015,06,15,11,44,23.60
2015,06,15,11,45,23.60
2015,06,15,11,46,23.60
2015,06,15,11,47,23.60
2015,06,15,11,48,23.60
2015,06,15,11,49,23.50
2015,06,15,11,50,23.40
2015,06,15,11,51,23.40
2015,06,15,11,52,23.30
2015,06,15,11,53,23.30
2015,06,15,11,54,23.20
2015,06,15,11,55,23.20
2015,06,15,11,56,23.20
2015,06,15,11,57,23.20
2015,06,15,11,58,23.20
2015,06,15,11,59,23.10
2015,06,15,12,00,23.20
2015,06,15,12,01,23.30
2015,06,15,12,02,23.30
2015,06,15,12,03,23.30
2015,06,15,12,04,23.30
2015,06,15,12,05,23.40
2015,06,15,12,06,23.50
2015,06,15,12,07,23.60
2015,06,15,12,08,23.70
2015,06,15,12,09,23.70
2015,06,15,12,10,23.70
2015,06,15,12,11,23.70
2015,06,15,12,12,23.70
2015,06,15,12,13,23.70
2015,06,15,12,14,23.70
2015,06,15,12,15,23.70
2015,06,15,12,16,23.80
2015,06,15,12,17,23.80
2015,06,15,12,18,23.80
2015,06,15,12,19,23.90
2015,06,15,12,20,24.00
2015,06,15,12,21,24.10
2015,06,15,12,22,24.10
2015,06,15,12,23,24.20
2015,06,15,12,24,24.10
2015,06,15,12,25,24.10
2015,06,15,12,26,24.10
2015,06,15,12,27,24.10
2015,06,15,12,28,24.10
2015,06,15,12,29,24.10
2015,06,15,12,30,24.10
2015,06,15,12,31,24.10
2015,06,15,12,32,24.10
2015,06,15,12,33,24.10
2015,06,15,12,34,24.10
2015,06,15,12,35,24.30
2015,06,15,12,36,24.30
2015,06,15,12,37,24.30
2015,06,15,12,38,24.30
2015,06,15,12,39,24.40
2015,06,15,12,40,24.40
2015,06,15,12,41,24.50
2015,06,15,12,42,24.60
2015,06,15,12,43,24.70
2015,06,15,12,44,24.80
2015,06,15,12,45,24.90
2015,06,15,12,46,24.90
2015,06,15,12,47,24.90
2015,06,15,12,48,24.90
2015,06,15,12,49,24.90
2015,06,15,12,50,24.90
2015,06,15,12,51,25.00
2015,06,15,12,52,25.00
2015,06,15,12,53,24.90
2015,06,15,12,54,24.90
2015,06,15,12,55,24.90
2015,06,15,12,56,24.80
2015,06,15,12,57,24.80
2015,06,15,12,58,24.80
2015,06,15,12,59,24.80
2015,06,15,13,00,24.80
2015,06,15,13,01,24.70
2015,06,15,13,02,24.70
2015,06,15,13,03,24.70
2015,06,15,13,04,24.70
2015,06,15,13,05,24.70
2015,06,15,13,06,24.70
2015,06,15,13,07,24.80
2015,06,15,13,08,24.80
2015,06,15,13,09,24.90
2015,06,15,13,10,24.90
2015,06,15,13,11,24.90
2015,06,15,13,12,24.90
2015,06,15,13,13,24.90
2015,06,15,13,14,24.90
2015,06,15,13,15,24.90
2015,06,15,13,16,24.90
2015,06,15,13,17,24.90
2015,06,15,13,18,24.90
2015,06,15,13,19,24.80
2015,06,15,13,20,24.70
2015,06,15,13,21,24.60
2015,06,15,13,22,24.60
2015,06,15,13,23,24.60
2015,06,15,13,24,24.50
2015,06,15,13,25,24.50
2015,06,15,13,26,24.60
2015,06,15,13,27,24.50
2015,06,15,13,28,24.50
2015,06,15,13,29,24.40
2015,06,15,13,30,24.30
2015,06,15,13,31,24.30
2015,06,15,13,32,24.30
2015,06,15,13,33,24.30
2015,06,15,13,34,24.30
2015,06,15,13,35,24.10
2015,06,15,13,36,24.00
2015,06,15,13,37,23.90
2015,06,15,13,38,23.70
2015,06,15,13,39,23.60
2015,06,15,13,40,23.60
2015,06,15,13,41,23.70
2015,06,15,13,42,23.70
2015,06,15,13,43,23.70
2015,06,15,13,44,23.70
2015,06,15,13,45,23.70
2015,06,15,13,46,23.80
2015,06,15,13,47,23.80
2015,06,15,13,48,23.80
2015,06,15,13,49,23.80
2015,06,15,13,50,23.70
2015,06,15,13,51,23.70
2015,06,15,13,52,23.50
2015,06,15,13,53,23.40
2015,06,15,13,54,23.30
2015,06,15,13,55,23.40
2015,06,15,13,56,23.50
2015,06,15,13,57,23.60
2015,06,15,13,58,23.70
2015,06,15,13,59,23.90
2015,06,15,14,00,24.10
2015,06,15,14,01,24.20
2015,06,15,14,02,24.40
2015,06,15,14,03,24.50
2015,06,15,14,04,24.70
2015,06,15,14,05,24.80
2015,06,15,14,06,24.80
2015,06,15,14,07,24.90
2015,06,15,14,08,24.80
2015,06,15,14,09,24.80
2015,06,15,14,10,24.60
2015,06,15,14,11,24.50
2015,06,15,14,12,24.50
2015,06,15,14,13,24.50
2015,06,15,14,14,24.60
2015,06,15,14,15,24.70
2015,06,15,14,16,24.70
2015,06,15,14,17,24.70
2015,06,15,14,18,24.70
2015,06,15,14,19,24.70
2015,06,15,14,20,24.60
2015,06,15,14,21,24.60
2015,06,15,14,22,24.60
2015,06,15,14,23,24.60
2015,06,15,14,24,24.60
2015,06,15,14,25,24.40
2015,06,15,14,26,24.10
2015,06,15,14,27,24.00
2015,06,15,14,28,23.80
2015,06,15,14,29,23.90
2015,06,15,14,30,24.10
2015,06,15,14,31,24.10
2015,06,15,14,32,24.30
2015,06,15,14,33,24.40
2015,06,15,14,34,24.40
2015,06,15,14,35,24.40
2015,06,15,14,36,24.50
2015,06,15,14,37,24.50
2015,06,15,14,38,24.50
2015,06,15,14,39,24.50
2015,06,15,14,40,24.50
2015,06,15,14,41,24.40
2015,06,15,14,42,24.30
2015,06,15,14,43,24.30
2015,06,15,14,44,24.30
2015,06,15,14,45,24.20
2015,06,15,14,46,24.10
2015,06,15,14,47,24.10
2015,06,15,14,48,24.00
2015,06,15,14,49,23.90
2015,06,15,14,50,24.00
2015,06,15,14,51,24.10
2015,06,15,14,52,24.10
2015,06,15,14,53,24.20
2015,06,15,14,54,24.20
2015,06,15,14,55,24.10
2015,06,15,14,56,24.10
2015,06,15,14,57,24.10
2015,06,15,14,58,24.10
2015,06,15,14,59,24.10
2015,06,15,15,00,24.20
2015,06,15,15,01,24.30
2015,06,15,15,02,24.30
2015,06,15,15,03,24.40
2015,06,15,15,04,24.50
2015,06,15,15,05,24.60
2015,06,15,15,06,24.70
2015,06,15,15,07,24.90
2015,06,15,15,08,25.10
2015,06,15,15,09,25.30
2015,06,15,15,10,25.50
2015,06,15,15,11,25.60
2015,06,15,15,12,25.40
2015,06,15,15,13,25.30
2015,06,15,15,14,25.20
2015,06,15,15,15,25.10
2015,06,15,15,16,25.10
2015,06,15,15,17,25.10
2015,06,15,15,18,25.10
2015,06,15,15,19,25.10
2015,06,15,15,20,25.00
2015,06,15,15,21,25.00
2015,06,15,15,22,25.10
2015,06,15,15,23,25.20
2015,06,15,15,24,25.30
2015,06,15,15,25,25.40
2015,06,15,15,26,25.50
2015,06,15,15,27,25.60
2015,06,15,15,28,25.70
2015,06,15,15,29,25.70
2015,06,15,15,30,25.80
2015,06,15,15,31,25.70
2015,06,15,15,32,25.70
2015,06,15,15,33,25.70
2015,06,15,15,34,25.70
2015,06,15,15,35,25.70
2015,06,15,15,36,25.60
2015,06,15,15,37,25.40
2015,06,15,15,38,25.10
2015,06,15,15,39,24.90
2015,06,15,15,40,24.80
2015,06,15,15,41,24.70
2015,06,15,15,42,24.60
2015,06,15,15,43,24.60
2015,06,15,15,44,24.70
2015,06,15,15,45,24.80
2015,06,15,15,46,24.90
2015,06,15,15,47,25.00
2015,06,15,15,48,25.10
2015,06,15,15,49,25.20
2015,06,15,15,50,25.30
2015,06,15,15,51,25.40
2015,06,15,15,52,25.60
2015,06,15,15,53,25.60
2015,06,15,15,54,25.60
2015,06,15,15,55,25.60
2015,06,15,15,56,25.60
2015,06,15,15,57,25.60
2015,06,15,15,58,25.60
2015,06,15,15,59,25.60
2015,06,15,16,00,25.70
2015,06,15,16,01,25.70
2015,06,15,16,02,25.80
2015,06,15,16,03,25.90
2015,06,15,16,04,25.90
2015,06,15,16,05,25.90
2015,06,15,16,06,26.00
2015,06,15,16,07,26.00
2015,06,15,16,08,26.00
2015,06,15,16,09,26.10
2015,06,15,16,10,26.10
2015,06,15,16,11,26.20
2015,06,15,16,12,26.20
2015,06,15,16,13,26.20
2015,06,15,16,14,26.00
2015,06,15,16,15,26.10
2015,06,15,16,16,26.10
2015,06,15,16,17,26.20
2015,06,15,16,18,26.30
2015,06,15,16,19,26.30
2015,06,15,16,20,26.30
2015,06,15,16,21,26.30
2015,06,15,16,22,26.30
2015,06,15,16,23,26.30
2015,06,15,16,24,26.30
2015,06,15,16,25,26.30
2015,06,15,16,26,26.40
2015,06,15,16,27,26.50
2015,06,15,16,28,26.60
2015,06,15,16,29,26.60
2015,06,15,16,30,26.60
2015,06,15,16,31,26.50
2015,06,15,16,32,26.40
2015,06,15,16,33,26.60
2015,06,15,16,34,26.60
2015,06,15,16,35,26.50
2015,06,15,16,36,26.40
2015,06,15,16,37,26.30
2015,06,15,16,38,26.30
2015,06,15,16,39,26.30
2015,06,15,16,40,26.30
2015,06,15,16,41,26.20
2015,06,15,16,42,26.20
2015,06,15,16,43,26.10
2015,06,15,16,44,26.10
2015,06,15,16,45,26.10
2015,06,15,16,46,26.10
2015,06,15,16,47,26.10
2015,06,15,16,48,26.10
2015,06,15,16,49,26.00
2015,06,15,16,50,25.90
2015,06,15,16,51,25.90
2015,06,15,16,52,26.00
2015,06,15,16,53,26.10
2015,06,15,16,54,26.10
2015,06,15,16,55,26.10
2015,06,15,16,56,26.10
2015,06,15,16,57,26.10
2015,06,15,16,58,26.00
2015,06,15,16,59,25.90
2015,06,15,17,00,25.70
2015,06,15,17,01,25.60
2015,06,15,17,02,25.60
2015,06,15,17,03,25.60
2015,06,15,17,04,25.60
2015,06,15,17,05,25.60
2015,06,15,17,06,25.70
2015,06,15,17,07,25.70
2015,06,15,17,08,25.70
2015,06,15,17,09,25.70
2015,06,15,17,10,25.60
2015,06,15,17,11,25.60
2015,06,15,17,12,25.40
2015,06,15,17,13,25.30
2015,06,15,17,14,25.20
2015,06,15,17,15,25.10
2015,06,15,17,16,25.00
2015,06,15,17,17,25.00
2015,06,15,17,18,25.10
2015,06,15,17,19,25.10